Tracking 31027 objects as of 19-Jul-2025
HD Live streaming from Space Station
objects crossing your sky now

SL-12 R/B(2)

Track SL-12 R/B(2) now!


NORAD ID: 25660
Int'l Code: 1999-013D
Perigee: 9,519.3 km
Apogee: 35,931.5 km
Inclination: 12.7 °
Period: 823.2 minutes
Semi major axis: 29096 km
RCS: 28.3579 m2 (large)
Launch date: March 21, 1999
Source: Commonwealth of Independent States (former USSR) (CIS)
Launch site: TYURATAM MISSILE AND SPACE COMPLEX (TTMTR)

Note: This is a ROCKET BODY
Your satellite tracking list
SL-14 DEB
Track 1 satellite(s)




NASA's NSSDC Master Catalog

Two Line Element Set (TLE):
1 25660U 99013D   25199.12267197 -.00000071  00000-0  00000-0 0  9991
2 25660  12.7209 129.7130 4538741  37.2393 133.2044  1.74922069168253
Source of the keplerian elements: AFSPC